Location: Home
(42.5358°N, 72.7383°W)
Time: 11:57:29
(UTC-05:00)

A-11 Canister half - Pass Details

Date: 03 December 2021
Orbit: 1524 x 1684 km, 47.3° (Epoch: 19 January)

Event Time Altitude Azimuth Distance (km) Brightness Sun altitude
Rises 00:17:48 0° 210° (SSW) 4,910 - -68.2°
Reaches altitude 10° 00:21:08 10° 205° (SSW) 3,932 - -67.9°
Maximum altitude 00:30:31 45° 137° (SE) 2,182 - -67.1°
Drops below altitude 10° 00:39:51 10° 69° (ENE) 3,924 - -66.2°
Exits shadow 00:40:40 - 68° (ENE) 4,158 11.5 -66.1°
Sets 00:43:09 0° 64° (ENE) 4,899 11.9 -65.8°
